Location: Newark
(30.1000°N, 109.4667°E)
Time: 21:28:51
(UTC+00:00)

SR - Pass Details

Date: 27 February 2020
Orbit: 578 x 877 km, 66.7° (Epoch: 09 April)

Event Time Altitude Azimuth Distance (km) Brightness Sun altitude
Rises 17:31:05 0° 309° (NW) 3,103 - -66.7°
Reaches altitude 10° 17:34:59 10° 280° (W) 2,101 - -66.3°
Maximum altitude 17:36:44 12° 257° (WSW) 1,935 - -66.1°
Drops below altitude 10° 17:38:27 10° 235° (SW) 2,031 - -66.0°
Sets 17:42:04 0° 204° (SSW) 2,872 - -65.6°
